Regional Weather Roundup
Issued by NWS

Home | Current Version | Previous Version | Text Only | Print | Product List | Glossary On
Versions: 1 2 3 4 5 6 7 8 9 10 11 12 13 14 15 16 17 18 19 20 21 22 23 24 25 26 27 28 29 30 31 32 33 34 35 36 37 38 39 40 41 42 43 44 45 46 47 48 49 50
000
ASUS43 KDTX 041510
RWRMI
MICHIGAN HOURLY REGIONAL WEATHER ROUNDUP
NATIONAL WEATHER SERVICE DETROIT/PONTIAC MI
1100 AM EDT TUE AUG 04 2015

NOTE: "FAIR" INDICATES FEW OR NO CLOUDS BELOW 12,000 FEET WITH NO
SIGNIFICANT WEATHER AND/OR OBSTRUCTION TO VISIBILITY.

MIZ047>049-052>055-059>063-066>070-074>076-081>083-041600-
SOUTHEAST LOWER MICHIGAN

CITY           SKY/WX    TMP DP  RH WIND       PRES   REMARKS
ADRIAN         SUNNY     73  60  63 W5        29.96S
ALMA           CLOUDY    73  58  60 W10       29.93R
ANN ARBOR      SUNNY     76  58  53 MISG      29.94R
BAD AXE        SUNNY     70  57  62 W10       29.90S
DETROIT CITY   SUNNY     75  54  47 W7        29.92S
DETROIT        MOSUNNY   75  58  55 SW8       29.94S
FLINT          SUNNY     76  58  53 W12       29.93R
GROSSE ILE     MOSUNNY   75  59  57 SW6       29.93R
HILLSDALE      SUNNY     75  58  57 W9        29.97S
HOWELL         SUNNY     75  57  53 W13       29.94S

CITY           SKY/WX    TMP DP  RH WIND       PRES   REMARKS
JACKSON        SUNNY     73  58  59 W12       29.96R
LAMBERTVILLE   MOSUNNY   75  60  57 W8        29.95S
LANSING        SUNNY     74  58  57 W14       29.95R
LAPEER         NOT AVBL
MASON          SUNNY     71  57  60 W8        29.95R
MONROE         MOSUNNY   73  60  63 W6        29.94R
MT. CLEMENS    MOSUNNY   77  57  49 SW10      29.90S
PONTIAC        MOSUNNY   73  56  54 W14       29.93R
PORT HURON     SUNNY     73  57  56 SW5       29.91S
TRI CITIES     SUNNY     74  58  57 W9        29.91S
YPSILANTI      SUNNY     79  59  50 W10       29.94S
$$
MIZ043>046-050>051-056>058-064>065-071>073-077>080-041600-
SOUTHWEST LOWER MICHIGAN

CITY           SKY/WX    TMP DP  RH WIND       PRES   REMARKS
BATTLE CREEK     N/A    N/A N/A N/A MISG      29.96S
BENTON HARBOR  SUNNY     75  57  53 W8        29.96S
BIG RAPIDS     PTSUNNY   71  56  59 W13       29.93R
COLDWATER      SUNNY     73  57  56 CALM      29.97S
HOLLAND        SUNNY     74  57  55 W10       29.96S
GRAND RAPIDS   MOSUNNY   75  55  49 W10G16    29.95R
KALAMAZOO      SUNNY     75  54  47 W12       29.97R
MARSHALL       SUNNY     75  56  51 W12       29.95S
MUSKEGON       MOSUNNY   75  56  51 W9        29.94S
$$
MIZ016>042-041600-
NORTHERN LOWER MICHIGAN

CITY           SKY/WX    TMP DP  RH WIND       PRES   REMARKS
ALPENA         PTSUNNY   68  59  73 VRB6      29.87R
BEAVER ISLAND  PTSUNNY   63  52  69 NW7       29.91R
BELLAIRE       PTSUNNY   68  57  67 W9        29.90R
CADILLAC       CLOUDY    68  57  68 W12G20    29.93R
CHARLEVOIX     PTSUNNY   65  56  71 NW8       29.93R
FRANKFORT      PTSUNNY   69  59  70 W7        29.92S
GAYLORD        LGT RAIN  62  60  93 W7        29.90R
GRAYLING       CLOUDY    67  57  70 W8        29.90R
HARBOR SPRINGS CLOUDY    65  56  70 NW8       29.89R
HOUGHTON LAKE  PTSUNNY   67  57  70 W13       29.91S
MANISTEE       CLOUDY    66  57  72 W8        29.94R
OSCODA         CLOUDY    70  57  63 W5        29.87F
PELLSTON       CLOUDY    64  55  72 W9        29.89R
TRAVERSE CITY  CLOUDY    69  56  62 NW9       29.89R
$$
MIZ007>008-015-041600-
EASTERN UPPER MICHIGAN

CITY           SKY/WX    TMP DP  RH WIND       PRES   REMARKS
KINROSS        PTSUNNY   61  54  77 NW12G17   29.87R
MACKINAC ISLAN   N/A    N/A N/A N/A MISG        N/A
NEWBERRY       CLOUDY    61  51  70 NW8       29.89R
S. S. MARIE    PTSUNNY   61  52  72 NW10      29.86R
$$
MIZ004>006-011>014-085-041600-
CENTRAL UPPER MICHIGAN

CITY           SKY/WX    TMP DP  RH WIND       PRES   REMARKS
MANISTIQUE     CLOUDY    63  52  67 NW7       29.90R
ESCANABA       CLOUDY    64  54  68 SW5       29.91R
MENOMINEE      CLOUDY    64  54  68 NW6       29.92S
SAWYER-GWINN   CLOUDY    61  55  82 NE9       29.91R
$$
MIZ001>003-009>011-084-041600-
WESTERN UPPER MICHIGAN

CITY           SKY/WX    TMP DP  RH WIND       PRES   REMARKS
IRON MOUNTAIN  LGT RAIN  62  55  77 NW14      29.92R
HOUGHTON       CLOUDY    63  51  65 NW8       29.91R
COPPER HARBOR    N/A     58  50  75 N8        29.91R
IRONWOOD       PTSUNNY   61  54  77 N8        29.94R
$$

ABBREVIATIONS USED IN REMARKS
   TC - TEMPERATURE IN CELSIUS
  WCI - WIND CHILL INDEX
   HX - HEAT INDEX
  VSB - VISIBILITY




USA.gov is the U.S. government's official web portal to all federal, state and local government web resources and services.